This is the latest recevied weather packets stored in our database for station/object IK0OZB-10. If no packets are shown the sender has not sent any weather packets the latest 10 day(s).
| Time | Temp. | Humidity | Pressure | Rain* | Wind** | Luminosity | Snow |
|---|---|---|---|---|---|---|---|
| 1777340569 | 15.56° C | 70% | 1016.6 hPa | - | - | - | - |
| 1777339668 | 15.56° C | 69% | 1016.8 hPa | - | - | - | - |
| 1777338768 | 15.56° C | 69% | 1016.9 hPa | - | - | - | - |
| 1777337868 | 15.56° C | 68% | 1016.9 hPa | - | - | - | - |
| 1777336968 | 16.11° C | 68% | 1016.9 hPa | - | - | - | - |
| 1777336068 | 16.11° C | 66% | 1016.9 hPa | - | - | - | - |
| 1777335168 | 16.67° C | 66% | 1017 hPa | - | - | - | - |
| 1777334268 | 16.11° C | 66% | 1017 hPa | - | - | - | - |
| 1777333373 | 16.11° C | 65% | 1017.1 hPa | - | - | - | - |
| 1777332463 | 17.22° C | 64% | 1017.1 hPa | - | - | - | - |
| 1777331563 | 17.78° C | 63% | 1017.3 hPa | - | - | - | - |
| 1777330662 | 17.78° C | 62% | 1017.4 hPa | - | - | - | - |
| 1777329762 | 18.33° C | 61% | 1017.3 hPa | - | - | - | - |
| 1777328862 | 18.33° C | 60% | 1017.1 hPa | - | - | - | - |
| 1777327962 | 18.33° C | 59% | 1017.1 hPa | - | - | - | - |
| 1777327062 | 18.89° C | 58% | 1017 hPa | - | - | - | - |
| 1777326162 | 18.89° C | 58% | 1017.1 hPa | - | - | - | - |
| 1777325262 | 19.44° C | 57% | 1017.1 hPa | - | - | - | - |
| 1777324362 | 19.44° C | 56% | 1017.1 hPa | - | - | - | - |
| 1777323461 | 20° C | 54% | 1017.1 hPa | - | - | - | - |
| 1777322561 | 20.56° C | 52% | 1016.9 hPa | - | - | - | - |
| 1777321661 | 20° C | 51% | 1016.9 hPa | - | - | - | - |
| 1777320761 | 20.56° C | 50% | 1016.9 hPa | - | - | - | - |
| 1777319861 | 20° C | 50% | 1017 hPa | - | - | - | - |
| 1777318961 | 20.56° C | 50% | 1017.1 hPa | - | - | - | - |
* Rain since midnight (hover to see other rain measurements)
** Current wind speed in m/s (hover to see current wind gust speed)